Regional Weather Roundup
Issued by NWS

Home | Current Version | Previous Version | Graphics & Text | Print | Product List | Glossary On
Versions: 1 2 3 4 5 6 7 8 9 10 11 12 13 14 15 16 17 18 19 20 21 22 23 24 25 26 27 28 29 30 31 32 33 34 35 36 37 38 39 40 41 42 43 44 45 46 47 48 49 50
000
ASUS43 KLMK 050610
RWRKY
KENTUCKY REGIONAL WEATHER ROUNDUP
NATIONAL WEATHER SERVICE LOUISVILLE KY
200 AM EDT SAT SEP 05 2015

NOTE "FAIR" INDICATES FEW OR NO CLOUDS BELOW 12,000 FEET
WITH NO SIGNIFICANT WEATHER AND/OR OBSTRUCTIONS TO VISIBILITY.

KYZ001>023-026-027-061>063-070>075-050700-
WESTERN AND SOUTH CENTRAL KENTUCKY

CITY           SKY/WX    TMP DP  RH WIND       PRES   REMARKS
PADUCAH        CLEAR     71  68  90 CALM      30.03F FOG
HENDERSON      PTCLDY    70  66  88 CALM      30.04S
OWENSBORO      MOCLDY    78  70  76 E9        30.06S
HOPKINSVILLE   CLEAR     74  67  77 CALM      30.04F
BOWLING GREEN  CLEAR     71  65  81 CALM      30.06S
GLASGOW        CLEAR     74  66  77 NE5       30.07F
$$

KYZ024-025-028>034-038-045-046-053-050700-
NORTH CENTRAL KENTUCKY

CITY           SKY/WX    TMP DP  RH WIND       PRES   REMARKS
LOUISVILLE/SDF MOCLDY    76  63  64 S8        30.07F
LOUISVILLE/LOU PTCLDY    73  63  70 S5        30.08F
FORT KNOX      CLEAR     72  64  74 E6        30.07F
$$

KYZ035>037-039>044-047>052-055>060-089>105-050700-
NORTHEAST KENTUCKY

CITY           SKY/WX    TMP DP  RH WIND       PRES   REMARKS
LEXINGTON      PTCLDY    73  62  68 E6        30.09F
COVINGTON      MOCLDY    67  64  90 CALM      30.09S
FRANKFORT      PTCLDY    71  63  75 SE3       30.08F
$$

KYZ054-064>069-076>088-106>120-050700-
SOUTHEAST KENTUCKY

CITY           SKY/WX    TMP DP  RH WIND       PRES   REMARKS
JACKSON        CLEAR     71  66  84 CALM      30.13S
LONDON         CLEAR     73  65  75 N7        30.11R
SOMERSET       PTCLDY    72  64  78 CALM      30.11R
MIDDLESBORO    CLEAR     68  67  96 CALM      30.12S
MONTICELLO     CLEAR     65  65 100 CALM      30.12S FOG
$$



USA.gov is the U.S. government's official web portal to all federal, state and local government web resources and services.